DELTA 1 DEB, 7045

Orbit data source: Space-Track

DELTA 1 DEB, 7045 is space debris in SSO originally from a launch on Tue, 06 Nov 1973 UTC launched from the Air Force Western Test Range (AFWTR). Debris objects in space refer to the collection of defunct objects orbiting the Earth. Examples of debris include non-operational satellites, rocket bodies, and fragments generated from explosions, collisions, or faulty payload assembly.

Loading next visibility...
Identifier
7045, 1973-086AM
Orbit
SSO
Country
Flag of USUS
Related business
Manufacturer
Unknown
Mission
Spacecraft
Bus & Motor
Unknown
Mass
Unknown
Launch date (UTC)
1973-11-06 (53 years ago)
Launch vehicle
Unknown
Launch site
Air Force Western Test Range (AFWTR)
Object type
Payload
Rocket body
Debris
Shape & HBR
Unknown shape, 0.1 m
Radar Cross Section
Medium (>0.1 m² and <1 m²)

Expand to show TLE details & history
Last TLE update: 22 hours ago

TLE from 22 hours ago
0 DELTA 1 DEB
1 07045U 73086AM  26265.03608007 -.00000015  00000-0  27839-3 0  9994
2 07045 102.5950 284.9102 0077123 175.6624 209.6352 12.26156623359386
Epoch: 2026-09-22T00:51Z
TLE epoch observation values (Epoch: 2026-09-22T00:51:57.318Z)
Latitude
24.25201°
Longitude
-94.73518°
Altitude
1,621.784 km
Speed
7.038 km/s
True Right ascension
18h 36m 38s
True Declination
24° 08' 15"
Sunlit
Object was in daylight at epoch
Visualization orbit readout
Latitude
Unknown
Longitude
Unknown
Altitude
Unknown
Speed
Unknown
Apparent Right ascension
Unknown
Apparent Declination
Unknown
Sunlit
N/A
Visualization observer readout
Local Sidereal Time
16:28:19
Azimuth
Unknown
Elevation
Unknown
Doppler factor
Unknown
Orbital elements
Apogee altitude
1,624.715 km
Perigee altitude
1,502.219 km
Semi-major axis
7,941.604 km
Eccentricity
0.00771
Inclination
102.595°
RAAN
284.9102°
Arg. of periapsis
175.6624°
True anomaly
209.20184°
Mean anomaly
209.6352°
Eccentric anomaly
209.41816°
Mean motion
3.06677 °/min
Orbital period
117.39 mins
BSTAR
0.00027839
Loading maneuver chart data...
Computing Atmospheric mass density...
Loading historical data...
Loading historical data...
Loading historical data...
Loading historical data...
Loading historical data...
Loading historical data...
Loading historical data...

Documentation

Showing up to 5 results
|